Regional Weather Roundup
Issued by NWS

Home | Current Version | Previous Version | Text Only | Print | Product List | Glossary Off
Versions: 1 2 3 4 5 6 7 8 9 10 11 12 13 14 15 16 17 18 19 20 21 22 23 24 25 26 27 28 29 30 31 32 33 34 35 36 37 38 39 40 41 42 43 44 45 46 47 48 49 50

000
ASUS43 KFSD 172210
RWRSD

WEATHER ROUNDUP FOR SOUTH DAKOTA
NATIONAL WEATHER SERVICE SIOUX FALLS SD
400 PM CST SAT FEB 17 2018

NOTE: "FAIR" INDICATES FEW OR NO CLOUDS BELOW 12,000 FEET WITH NO
SIGNIFICANT WEATHER AND/OR OBSTRUCTIONS TO VISIBILITY.


SDZ001>005-009-010-012>017-172300-
NORTHWEST AND NORTH CENTRAL SOUTH DAKOTA

CITY           SKY/WX    TMP DP  RH WIND       PRES   REMARKS
BUFFALO          N/A     21  13  71 CALM      29.84F
FAITH            N/A     20  14  77 NW7       29.96F WCI  11
MOBRIDGE       SUNNY     26  13  57 NW10      29.99S WCI  16
$$

SDZ012>016-024>037-041>051-057-063-072>074-172300-
SOUTHWEST AND SOUTH CENTRAL SOUTH DAKOTA

CITY           SKY/WX    TMP DP  RH WIND       PRES   REMARKS
RAPID CTY ARPT PTSUNNY   29  21  72 NE9       29.91F WCI  20
PIERRE         PTSUNNY   27  19  72 NW9       30.03F WCI  18
CUSTER         SUNNY     32  12  43 VRB5      29.80F WCI  27
ELLSWORTH AFB  MOSUNNY   27  21  80 NE7       29.90  WCI  19
PHILIP         MOSUNNY   30  21  69 N8        30.00F WCI  22
PINE RIDGE     SUNNY     39  21  48 CALM      29.91F
SPEARFISH        N/A     27  19  74 NE7       29.85F WCI  19
WINNER         FAIR      37  23  56 NW8       30.03S
$$

SDZ004>011-016>023-039-040-172300-
NORTHEAST SOUTH DAKOTA

CITY           SKY/WX    TMP DP  RH WIND       PRES   REMARKS
ABERDEEN       MOSUNNY   32  13  45 W13       30.02S WCI  22
WATERTOWN      MOSUNNY   31  14  49 NW15      29.97R WCI  20
BROOKINGS      PTSUNNY   32  20  61 NW20      29.99R WCI  20
SISSETON         N/A     31   5  33 NW21G26   29.98R WCI  18
$$

SDZ017-020-022-023-036>040-048>070-172300-
SOUTHEAST SOUTH DAKOTA

CITY           SKY/WX    TMP DP  RH WIND       PRES   REMARKS
SIOUX FALLS    MOSUNNY   32  23  69 W14       30.04R WCI  22
HURON          MOSUNNY   32  22  66 W14       30.04S WCI  22
CHAMBERLAIN    SUNNY     33  25  72 W7        30.05F WCI  27
MITCHELL       PTSUNNY   30  23  75 NW12      30.06F WCI  20
YANKTON        MOSUNNY   33  25  72 NW14      30.07R WCI  23
$$

ABBREVIATIONS USED IN REMARKS
   TC - TEMPERATURE IN CELSIUS
  WCI - WIND CHILL INDEX
   HX - HEAT INDEX
  VSB - VISIBILITY





USA.gov is the U.S. government's official web portal to all federal, state and local government web resources and services.